Weather Roundup
Issued by NWS Springfield, MO

Home | Current Version | Previous Version | Text Only | Print | Product List | Glossary On
Versions: 1 2 3 4 5 6 7 8 9 10 11 12 13 14 15 16 17 18 19 20 21 22 23 24 25 26 27 28 29 30 31 32 33 34 35 36 37 38 39 40 41 42 43 44 45 46 47 48 49 50
000
NZUS99 KSGF 210107
HRRSGF

HOURLY WEATHER
NATIONAL WEATHER SERVICE SPRINGFIELD MO
700 PM CST FRI JAN 20 2017

......SGF CWA......

CITY           SKY/WX    TMP DP  RH WIND       PRES   REMARKS
SPRINGFIELD    CLEAR     56  39  53 S10       29.52R
JOPLIN         CLEAR     57  39  51 SW12      29.51R
WEST PLAINS    CLEAR     57  48  72 S10       29.59R
ROLLA          CLEAR     52  48  86 SE10      29.51R
OSAGE BEACH    CLEAR     55  48  77 S6        29.52R
BRANSON        PTCLDY    59  37  44 SW13      29.56R

......SURROUNDING SGF CWA......

CITY           SKY/WX    TMP DP  RH WIND       PRES   REMARKS
CHANUTE        CLEAR     49  40  71 SW9       29.48R
PARSONS        CLEAR     50  40  68 S5        29.49S
COFFEYVILLE    CLEAR     54  41  61 S5        29.49S
EMPORIA        CLOUDY    48  44  86 SW9       29.46R
GROVE OK       CLEAR     57  39  51 CALM      29.53R
ROGERS AR      CLEAR     58  39  49 S13       29.56R
SILOAM SPRINGS CLEAR     57  37  47 S10       29.54S
HARRISON AR    CLEAR     59  40  49 S8        29.58R
NEAR YELLVILLE CLEAR     61  45  55 S5        29.56R

......KANSAS AND MISSOURI......

CITY           SKY/WX    TMP DP  RH WIND       PRES   REMARKS
KANSAS CTY INT CLOUDY    49  46  90 SE7       29.47R
DOWNTOWN KC    CLOUDY    51  49  92 E5        29.46S
COLUMBIA       CLEAR     48  47  96 E9        29.50R
SEDALIA        PTCLDY    51  46  83 S3        29.50R
ST JOSEPH      LGT RAIN  47  47 100 E6        29.47R FOG
ST LOUIS       PTCLDY    52  48  86 SE8       29.57F
SPIRIT OF STL  PTCLDY    46  46 100 E3        29.56S FOG
KIRKSVILLE     FOG       47  46  97 E8        29.52S VSB 3/4
WICHITA        PTCLDY    41  39  93 S8        29.44S
TOPEKA         CLOUDY    50  47  89 CALM      29.45R
OLATHE         MOCLDY    48  46  93 S3        29.46S

......TENNESSEE......

CITY           SKY/WX    TMP DP  RH WIND       PRES   REMARKS
MEMPHIS        MOCLDY    63  55  75 S10       29.68F
NASHVILLE      MOCLDY    62  51  67 S8G21     29.75R

......ARKANSAS.......

CITY           SKY/WX    TMP DP  RH WIND       PRES   REMARKS
FAYETTEVILLE   CLEAR     56  39  53 S8        29.56R
FT SMITH       CLEAR     60  38  43 S6        29.57S
LITTLE ROCK    PTCLDY    56  50  80 SE6       29.65R

......OKLAHOMA.......

CITY           SKY/WX    TMP DP  RH WIND       PRES   REMARKS
TULSA          PTCLDY    59  34  39 S10       29.50R
PONCA CITY     PTCLDY    46  39  76 SE8       29.45R
MCALESTER      PTCLDY    64  38  38 S7        29.56R
OKLAHOMA CITY  PTCLDY    60  35  39 SW15      29.51R

......IOWA............

CITY           SKY/WX    TMP DP  RH WIND       PRES   REMARKS
DES MOINES     DRZL/FOG  40  39  97 E9        29.52F VSB 1/2 WCI  34
QUAD CITIES    FOG       43  41  93 E7        29.59S VSB 3/4

......ILLINOIS........

CITY           SKY/WX    TMP DP  RH WIND       PRES   REMARKS
QUINCY         CLOUDY    48  47  96 SE9       29.55S FOG
CHICAGO        DRZL/FOG  41  41 100 SE7       29.65R VSB 3/4




USA.gov is the U.S. government's official web portal to all federal, state and local government web resources and services.